Weather observations for the past three days for
Salisbury, Salisbury-Ocean City Wicomico County Regional Airport
Imperial (Metric)
Date Time (edt) Wind (mph) Vis. (mi.) Weather Sky Cond. Temperature (ºF) Relative Humidity Wind Chill (°F) Heat Index (°F) Pressure Precipitation (in)
Air Dwpt 6 hour altimeter (in) sea level (mb) 1 hr 3 hr 6 hr
Max. Min.
20 21:54 NE 5 10.00 Overcast OVC005 73.9 73 97% 30.04 1017.5
20 20:54 NE 6 10.00 Light Rain OVC007 73 73 100% 30.03 1017.0 0.01
20 19:54 E 7 10.00 Light Rain SCT110 72 72 82.9 72 100% 30.02 1016.9 0.01 0.05
20 18:54 E 5 10.00 Light Rain BKN100 72 70 94% 30.04 1017.4 0.01
20 17:54 SE 7 10.00 Mostly Cloudy FEW019 BKN110 75 73 94% 73 30.06 1018.0 0.02
20 16:54 SE 8 10.00 Light Rain FEW023 BKN110 77 72 85% 78 30.07 1018.5 0.01 0.01
20 15:54 SE 13 G 21 10.00 Overcast FEW021 BKN070 OVC120 79 71.1 77% 82 30.08 1018.6
20 14:54 SE 13 G 23 10.00 Mostly Cloudy FEW038 FEW075 BKN120 82 69.1 65% 85 30.08 1018.7
20 13:54 SE 15 10.00 Partly Cloudy FEW075 SCT120 82 66.9 82.9 73 60% 85 30.09 1019.2
20 12:54 E 12 10.00 Fair CLR 81 70 69% 84 30.1 1019.5
20 11:54 SE 10 10.00 A Few Clouds FEW080 81 69.1 67% 84 30.12 1020.0
20 10:54 SE 9 10.00 A Few Clouds FEW085 81 66.9 62% 83 30.11 1019.9
20 09:54 E 9 10.00 Fair CLR 78.1 71.1 79% 80 30.12 1020.0
20 08:54 SE 8 10.00 Fair CLR 77 72 85% 78 30.12 1020.3
20 07:54 Calm 10.00 Fair CLR 73 71.1 73 66 94% 30.13 1020.3
20 06:54 Calm 10.00 Fair CLR 69.1 68 96% 30.12 1020.0
20 05:54 Calm 10.00 Partly Cloudy SCT110 68 66.9 96% 30.12 1020.1
20 04:54 Calm 10.00 Fair CLR 68 66.9 96% 30.12 1020.0
20 03:54 Calm 10.00 Fair CLR 68 66.9 96% 30.11 1020.0
20 02:54 Calm 10.00 Fair CLR 66.9 64.9 93% 30.11 1019.9
20 01:54 Calm 10.00 Fair CLR 66.9 64.9 75.9 66 93% 30.13 1020.4
20 00:54 Calm 10.00 Fair CLR 66.9 64 91% 30.14 1020.8
19 23:54 Calm 10.00 Fair CLR 68 64.9 90% 30.15 1021.1
19 22:54 Calm 10.00 Fair CLR 69.1 64 84% 30.15 1021.3
19 21:54 E 5 10.00 Fair CLR 70 64 82% 30.15 1021.2
19 20:54 E 5 10.00 Fair CLR 71.1 61 71% 30.13 1020.6
19 19:54 SE 7 10.00 Fair CLR 75.9 63 84 75.9 64% 78 30.12 1020.3
19 18:54 E 9 10.00 Fair CLR 80.1 61 52% 81 30.11 1019.9
19 17:54 E 7 10.00 Fair CLR 82 60.1 47% 82 30.1 1019.5
19 16:54 E 6 10.00 Fair CLR 82.9 60.1 46% 83 30.1 1019.5
19 15:54 E 7 10.00 Fair CLR 82.9 60.1 46% 83 30.11 1019.8
19 14:54 E 6 10.00 Fair CLR 82.9 61 48% 83 30.12 1020.3
19 13:54 Vrbl 6 10.00 Fair CLR 82.9 62.1 82.9 72 49% 84 30.13 1020.6
19 12:54 E 8 10.00 Fair CLR 81 62.1 53% 82 30.14 1020.8
19 11:54 NE 8 10.00 Fair CLR 80.1 63 56% 81 30.14 1020.8
19 10:54 E 9 10.00 Fair CLR 79 62.1 56% 80 30.13 1020.4
19 09:54 NE 15 10.00 Fair CLR 77 64 64% 79 30.12 1020.1
19 08:54 NE 9 10.00 Fair CLR 73.9 64.9 74% 30.11 1019.8
19 07:54 NE 9 10.00 Fair CLR 72 66.9 72 69.1 84% 30.09 1019.2
19 06:54 NE 7 7.00 Fair CLR 71.1 69.1 94% 30.07 1018.4
19 05:54 N 6 6.00 Fog/Mist CLR 69.1 68 96% 30.03 1017.2
19 04:54 N 7 8.00 Fair CLR 70 69.1 97% 30.02 1016.6
19 03:54 Calm 8.00 A Few Clouds FEW120 69.1 69.1 100% 30.01 1016.4
19 02:54 Calm 6.00 Fog/Mist CLR 70 69.1 97% 30 1016.1
19 01:54 NW 5 9.00 Fair CLR 70 70 75.9 70 100% 30 1016.1 0.16
19 00:54 Calm 6.00 Fog/Mist CLR 71.1 71.1 100% 30 1016.1
18 23:54 Calm 4.00 Fog/Mist FEW003 72 72 100% 29.99 1015.8
18 22:54 Calm 5.00 Fog/Mist CLR 72 72 100% 29.98 1015.5 0.16
18 21:54 Calm 10.00 Mostly Cloudy SCT095 BKN110 73 72 96% 29.99 1015.8 0.07
18 20:54 NE 5 3.00 Heavy Rain Fog/Mist FEW011 BKN049 OVC080 73.9 73 97% 29.98 1015.5 0.09
18 19:54 SE 8 10.00 Mostly Cloudy SCT009 BKN042 75.9 73 84 75.9 91% 76 29.94 1014.1
18 18:54 SE 3 10.00 A Few Clouds FEW034 FEW110 78.1 73.9 87% 81 29.93 1013.5
18 17:54 SE 7 10.00 A Few Clouds FEW018 79 73.9 85% 83 29.91 1013.0
18 16:54 E 7 10.00 Fair CLR 81 73.9 79% 86 29.91 1013.0
18 15:54 E 9 10.00 Overcast SCT022 OVC027 79 73.9 85% 83 29.93 1013.6
18 14:54 E 8 10.00 Mostly Cloudy SCT033 BKN070 BKN085 81 75 82% 87 29.94 1014.0
18 13:54 N 8 10.00 Overcast FEW034 BKN050 OVC080 84 71.1 87.1 78.1 65% 89 29.93 1013.7
18 12:54 N 8 10.00 Thunderstorm in Vicinity SCT035 BKN050 OVC075 84 71.1 65% 89 29.93 1013.5
18 11:54 NW 12 10.00 Thunderstorm OVC027 82 71.1 69% 86 29.92 1013.2
18 10:54 NW 6 10.00 Overcast BKN019 OVC028 82.9 75 77% 90 29.92 1013.3
18 09:54 W 7 10.00 Mostly Cloudy BKN012 82 75 79% 89 29.92 1013.3
18 08:54 W 9 10.00 Mostly Cloudy FEW015 BKN025 80.1 73.9 82% 85 29.93 1013.4
18 07:54 SW 6 10.00 Fair CLR 78.1 73.9 79 75.9 87% 81 29.91 1012.9
18 06:54 SW 5 10.00 Overcast OVC016 75.9 73.9 94% 75 29.9 1012.5
18 05:54 W 7 10.00 Fair CLR 75.9 73 91% 76 29.87 1011.7
18 04:54 SW 9 10.00 A Few Clouds FEW070 77 73.9 90% 78 29.85 1010.9
18 03:54 SW 8 10.00 Fair CLR 77 73.9 90% 78 29.84 1010.7
18 02:54 SW 8 10.00 Fair CLR 78.1 73 85% 81 29.86 1011.2
18 01:54 W 5 10.00 Fair CLR 79 75.9 84.9 79 90% 83 29.85 1010.9
18 00:54 SW 7 10.00 Fair CLR 80.1 77 90% 86 29.85 1011.0
17 23:54 SW 10 10.00 Light Rain FEW047 SCT110 80.1 75.9 87% 85 29.85 1011.0
17 22:54 S 6 10.00 Mostly Cloudy BKN047 BKN055 81 75.9 85% 87 29.87 1011.6
Date Time (edt) Wind (mph) Vis. (mi.) Weather Sky Cond. Air Dwpt Max. Min. Relative Humidity Wind Chill (°F) Heat Index (°F) altimeter (in) sea level (mb) 1 hr 3 hr 6 hr
6 hour
Temperature (ºF) Pressure Precipitation (in)